Вернуться в каталог

CZ-6A DEB

АктивенPO
NORAD 60804·DEBRIS·🇨🇳 China

Запущен Aug 6, 2024 с Taiyuan Satellite Launch Center

Loading…

Ближайшие Пролёты (ближайшие 24 часа)

TLE

СвежийSource: Space-Track

Эпоха: Sep 14, 2026, 07:06 UTC

1 60804U 24140GF  26257.29586935  .00000184  00000-0  88700-4 0  9998
2 60804  89.0330 268.9683 0073037 267.8809  91.4012 14.13318392106914

Отслеживайте CZ-6A DEB в реальном времени с AllMySat

Download on the App Store